Location: Abtsul
(50.8948°N, 3.2681°E)
Time: 04:07:40
(UTC+00:00)

Daily predictions for brighter satellites

Satellite Brightness Start Highest point End
(mag) Time Altitude Azimuth Time Altitude Azimuth Time Altitude Azimuth
ATLAS 2AS CENTAUR R/B 4.3 00:01:17 10° NW 00:04:13 27° NW 00:04:13 27° NW
Cosmos 2219 Rocket 4.5 00:56:56 16° NNW 00:57:04 16° NNW 01:00:29 10° N
SL-16 R/B 3.4 01:09:59 45° NNE 01:09:59 45° NNE 01:14:24 10° N
Cosmos 2237 Rocket 4.0 01:10:40 25° NNW 01:10:40 25° NNW 01:13:47 10° NNE
ADEOS II 3.8 01:14:07 10° NNE 01:17:15 27° ENE 01:17:15 27° ENE
Cosmos 2344 4.4 01:36:03 35° NW 01:37:58 40° NNW 01:45:56 10° NE
SL-16 R/B 3.5 01:48:08 33° NNW 01:48:08 33° NNW 01:51:55 10° NNE
CZ-2D R/B 3.1 01:46:46 10° NNE 01:50:21 43° NNE 01:50:21 43° NNE
Resurs 1-4 Rocket 3.1 01:58:23 10° N 02:01:48 41° N 02:01:48 41° N
Cosmos 2366 rocket 4.2 02:23:31 55° NW 02:23:31 55° NW 02:28:46 10° N
Cosmos 1943 3.6 02:23:44 54° NNW 02:23:44 54° NNW 02:28:31 10° NNE
Cosmos 1603 4.0 02:26:52 60° NNW 02:26:52 60° NNW 02:31:51 10° NNE
Meteor 2-2 Rocket 4.4 02:27:48 63° NNW 02:27:48 63° NNW 02:32:39 10° N
Cosmos 292 Rocket 4.1 02:37:21 64° NNE 02:37:21 64° NNE 02:41:29 10° NNE
Cosmos 1743 Rocket 4.3 02:32:16 10° N 02:36:19 51° ENE 02:36:19 51° ENE
IDEFIX/ARIANE 42P 2.9 02:31:25 10° N 02:35:50 57° NNW 02:35:50 57° NNW
SL-08 R/B 4.3 02:39:14 75° SSW 02:39:47 85° W 02:45:57 10° N
ATLAS 5 CENTAUR R/B 3.1 02:40:34 28° N 02:40:34 28° N 02:43:48 10° NE
Cosmos 2239 Rocket 4.4 02:41:02 58° S 02:42:20 80° E 02:48:32 10° NNE
Cosmos 2218 Rocket 4.5 02:43:27 43° NW 02:43:27 43° NW 02:48:42 10° N
CZ-2C R/B 4.0 02:38:25 10° NNE 02:42:57 32° E 02:45:49 18° SE
Cosmos 2221 3.7 02:44:53 35° N 02:44:53 35° N 02:47:27 10° N
Cosmos 2251 Rocket 3.8 02:37:59 10° NNW 02:43:16 66° ENE 02:48:28 10° SE
Cosmos 1000 Rocket 4.3 02:37:13 10° NNW 02:43:29 80° W 02:44:16 68° SSW
Cosmos 1500 Rocket 4.1 02:41:31 10° N 02:45:07 55° NNE 02:45:07 55° NNE
Cosmos 1821 Rocket 3.8 02:45:36 70° SW 02:46:15 78° WNW 02:52:33 10° N
MSX 3.7 02:43:58 10° NNE 02:49:42 69° WNW 02:49:57 68° W
SL-16 R/B 4.0 02:55:04 21° NW 02:55:04 21° NW 02:57:38 10° NNW
Cosmos 2123 Rocket 4.0 02:46:06 10° N 02:52:22 82° E 02:57:14 18° SSE
FENGYUN 3A 4.1 02:47:46 10° NNE 02:53:05 57° E 02:55:11 35° SSE
ADEOS II 2.7 02:53:42 10° N 02:58:10 42° NW 02:58:10 42° NW
Cosmos 1140 Rocket 3.8 02:55:27 10° NNW 03:00:38 65° ENE 03:05:48 10° SE
Sich 1 3.5 02:57:49 10° N 03:02:06 59° ENE 03:04:07 29° SE
Cosmos 1697 Rocket 3.7 02:56:59 10° NNW 03:02:26 46° NE 03:07:52 10° SE
Cosmos 44 3.2 03:03:53 63° NNW 03:03:53 63° NNW 03:07:51 10° NE
Cosmos 1933 4.2 03:05:12 42° NNW 03:05:12 42° NNW 03:08:04 10° N
IRS-1D 3.5 03:04:12 10° NNE 03:09:33 76° WNW 03:10:32 59° SW
Cosmos 1782 3.5 03:11:05 44° NNW 03:11:05 44° NNW 03:14:03 10° N
CBERS-1 4.1 03:06:15 10° NNE 03:11:23 73° ESE 03:13:28 36° S
Cosmos 1934 Rocket 4.0 03:08:35 30° S 03:11:59 87° E 03:18:22 10° N
Cosmos 482 Debris 4.5 03:15:12 55° ENE 03:15:12 55° ENE 03:18:40 10° ENE
Cosmos 1605 Rocket 4.4 03:08:56 10° S 03:14:48 60° E 03:20:47 10° NNE
CZ-2C R/B 3.1 03:19:08 10° SSE 03:24:15 61° ENE 03:29:30 10° N
Cosmos 1932 4.4 03:25:13 41° SW 03:27:36 76° NW 03:34:05 10° NE
Cosmos 1842 Rocket 4.4 03:28:25 34° NW 03:28:25 34° NW 03:31:48 10° N
Cosmos 1812 3.6 03:31:34 35° NW 03:31:34 35° NW 03:34:22 10° N
PAYLOAD A 3.9 03:26:39 10° NNE 03:31:25 76° ESE 03:34:35 22° S
CZ-2D R/B 3.8 03:27:58 10° NNW 03:31:30 18° NW 03:31:39 18° NW
Cosmos 1340 4.0 03:32:42 27° NW 03:32:42 27° NW 03:35:00 10° N
SL-16 R/B 4.3 03:30:01 11° NW 03:32:27 14° NNW 03:35:15 10° N
Cosmos 407 Rocket 3.4 03:27:51 10° NNW 03:33:11 81° WSW 03:38:31 10° SSE
Cosmos 1980 Rocket 3.2 03:35:32 10° NNW 03:40:58 47° NE 03:46:21 10° SE
BREEZE-M DEB (TANK) 2.0 03:41:11 52° S 03:41:11 52° S 03:45:16 10° ESE
Meteor 1-14 Rocket 4.3 03:35:30 10° NNW 03:41:24 64° W 03:47:10 10° S
EO 1 Del DPAF 3.7 03:38:17 10° N 03:40:49 37° NW 03:40:49 37° NW
Cosmos 1656 3.7 03:36:01 10° NW 03:41:35 55° WSW 03:47:07 10° S
Lacrosse 4 Rocket 4.2 03:38:59 10° N 03:41:38 16° NNE 03:44:17 10° ENE
ALOS 2.2 03:37:26 10° N 03:42:06 68° WNW 03:44:08 33° SW
Resurs 1-4 Rocket 4.0 03:39:48 10° NNW 03:42:32 14° NW 03:42:52 14° NW
X-37B 2.9 03:43:15 13° SSE 03:43:15 13° SSE 03:44:33 10° SE
Helios 1B rocket 2.3 03:48:54 10° NNE 03:52:58 83° WNW 03:55:38 21° SSW
Meteor 1-5 Rocket 4.5 03:48:33 10° NNW 03:53:37 40° W 03:57:32 16° SSW
Cosmos 1805 Rocket 4.0 03:49:33 10° NNW 03:53:38 37° W 03:54:18 35° WSW
SL-16 R/B 4.5 03:49:08 10° NNW 03:53:41 24° NE 03:58:12 10° E
ARIANE 5 R/B 2.6 03:49:34 10° NNE 03:54:40 76° ESE 03:59:40 10° S
Meteor 1-11 Rocket 3.9 03:52:17 10° NNW 03:58:18 85° ENE 04:04:17 10° SSE
SL-08 R/B 3.2 03:58:03 10° SSE 04:02:41 87° WSW 04:07:28 10° NNW
Cosmos 1633 Rocket 2.9 03:58:48 10° NNW 04:03:10 83° W 04:07:31 10° S
Cosmos 1484 Rocket 2.9 04:03:26 10° NNE 04:07:25 77° E 04:11:24 10° S
USA 306 4.1 04:05:17 16° SSW 04:08:05 35° SE 04:11:51 10° ENE
Cosmos 676 Rocket 4.0 04:04:24 10° NNW 04:09:39 86° ENE 04:14:54 10° SSE
Cosmos 1666 Rocket 3.6 04:08:31 10° NNW 04:12:54 56° W 04:17:16 10° S
Cosmos 2098 Rocket 1.9 04:10:05 10° NNW 04:12:59 59° W 04:15:50 10° S
ERS-1 4.5 04:08:37 10° NNE 04:13:49 81° WNW 04:19:01 10° SSW
Cosmos 2360 4.2 04:08:49 10° NW 04:14:27 62° WSW 04:20:03 10° SSE
IDEFIX/ARIANE 42P 4.4 04:12:42 10° NNW 04:15:17 14° NW 04:16:37 13° WNW
Meteor 1-4 Rocket 2.4 04:13:57 10° NNW 04:17:34 86° W 04:21:12 10° S
Cosmos 1624 Rocket 4.2 04:12:35 10° SSW 04:17:51 75° ESE 04:23:12 10° NNE
CZ-2C R/B 3.9 04:12:38 10° NNE 04:18:26 61° E 04:24:02 10° S
Cosmos 1153 Rocket 4.4 04:12:40 10° SSW 04:18:49 79° W 04:25:05 10° N
CZ-2C R/B 2.9 04:16:30 10° N 04:21:16 42° WNW 04:25:10 14° SW
USA 234 3.9 04:14:56 10° ENE 04:21:19 53° SE 04:27:40 10° SW
Cosmos 2100 Rocket 4.2 04:15:50 10° S 04:21:56 74° E 04:28:05 10° NNE
Cosmos 1328 Rocket 3.5 04:18:07 10° SSW 04:22:28 83° W 04:26:55 10° N
Meteor 2-13 Rocket 4.5 04:16:39 10° N 04:22:49 88° E 04:28:58 10° S
BREEZE-M DEB (TANK) 3.6 04:20:00 18° W 04:23:22 37° SSW 04:25:54 10° SE
ATLAS 5 CENTAUR R/B 3.8 04:22:42 10° NW 04:25:44 18° N 04:29:09 10° NE
Cosmos 1833 Rocket 2.7 04:20:24 10° SSW 04:26:04 85° WNW 04:31:46 10° NNE
CZ-2C R/B 1.3 04:25:15 10° N 04:27:22 83° W 04:30:26 10° S
Envisat 3.0 04:22:15 10° NNE 04:27:22 86° ESE 04:32:28 10° SSW
USA 308 3.9 04:24:31 11° SSW 04:28:13 40° SE 04:32:07 10° ENE
Cosmos 1515 3.6 04:24:56 10° SSW 04:28:37 60° WNW 04:32:19 10° N
ERBS 2.0 04:28:10 20° SW 04:30:00 72° SE 04:32:53 10° ENE
IRS-1C 4.3 04:25:04 10° N 04:30:14 52° WNW 04:35:24 10° SW
Cosmos 1536 2.9 04:26:36 10° NNW 04:30:35 57° W 04:34:33 10° S
Cosmos 1371 Rocket 4.0 04:25:26 10° SSW 04:30:44 84° WNW 04:36:02 10° NNE
Aureole 3 4.0 04:28:39 15° SW 04:31:24 30° WNW 04:34:30 10° N
PSLV R/B 4.3 04:27:35 10° NNE 04:31:53 57° E 04:36:08 10° S
COSMOS 2406 3.6 04:29:33 10° SSW 04:35:09 65° ESE 04:40:48 10° NE
Cosmos 2082 Rocket 3.1 04:31:01 10° S 04:36:26 52° ESE 04:41:53 10° NE
YAOGAN 6 2.6 04:34:27 10° N 04:38:02 57° WNW 04:41:36 10° SSW
Cosmos 1515 Rocket 3.7 04:36:06 10° S 04:40:31 81° E 04:45:00 10° NNE
Cosmos 1151 Rocket 3.6 04:37:09 10° SW 04:41:03 34° WNW 04:44:58 10° N
BREEZE M DEB (TANK) 4.4 04:22:03 14° W 04:41:11 83° S 04:46:07 10° E
Cosmos 1470 Rocket 3.6 04:39:39 10° NNW 04:43:52 53° W 04:48:05 10° S
Cosmos 1697 Rocket 3.2 04:41:11 10° NW 04:46:20 37° WSW 04:51:27 10° S
Cosmos 2360 Rocket 4.2 04:44:38 10° NNW 04:49:25 27° NE 04:54:10 10° E
Cosmos 1356 4.3 04:49:39 10° SW 04:52:28 26° WNW 04:55:18 10° N
Cosmos 1346 Rocket 3.3 04:49:11 10° SW 04:52:57 40° WNW 04:56:44 10° N
Cosmos 1850 Rocket 4.2 04:48:42 10° NNW 04:54:04 83° ENE 04:59:25 10° SSE
BREEZE M DEB (TANK) 4.2 04:42:23 10° SW 04:54:17 49° SSE 04:57:58 10° E
ATLAS CENTAUR R/B 2.2 04:50:08 10° SSW 04:54:56 67° SE 04:59:47 10° NE
Cosmos 1743 3.5 04:52:24 10° NNW 04:55:42 28° W 04:58:59 10° SSW
USA 305 3.1 04:54:15 10° SW 04:58:22 69° SSE 05:02:28 10° ENE
CZ-2C R/B 2.6 04:54:45 10° NNE 04:58:29 80° WNW 05:02:16 10° SSW
Tsikada Rocket 4.3 04:52:29 10° N 04:58:53 78° E 05:05:09 10° SSE
BREEZE-M DEB (TANK) 2.2 04:56:15 10° W 04:59:00 45° SSW 05:01:18 10° ESE
Cosmos 2056 Rocket 3.6 04:56:19 10° SW 05:01:20 53° WNW 05:06:22 10° NNE
Cosmos 1441 Rocket 3.6 05:00:32 10° SW 05:04:01 39° WNW 05:07:33 10° N
Meteor 1-27 Rocket 3.9 04:58:42 10° SSW 05:04:21 56° WNW 05:10:09 10° N
CZ-2C R/B 3.6 05:00:54 10° SW 05:04:59 23° W 05:09:09 10° NW
Cosmos 1802 Rocket 4.1 05:00:33 10° SSW 05:06:57 75° W 05:13:19 10° N
Cosmos 1939 Rocket 4.3 05:04:51 10° NNE 05:08:48 45° E 05:12:40 10° S
Spot 4 Rocket 4.2 05:06:00 10° N 05:10:59 51° WNW 05:15:56 10° SW
Cosmos 1459 Rocket 4.2 05:05:34 10° SSW 05:11:48 58° WNW 05:18:07 10° N
